| time (UTC) | temp C | wind direction | speed KPH | gust KPH | rain 1hr cm | rain 24hr cm | rain mn cm | humidity % | barometer mb |
| 20260902194907 | 16 | 267 | 9.7 | 25.7 | 0.00 | 0.00 | 0.00 | 57 | 1018.0 |
| 20260902193907 | 16 | 249 | 9.7 | 22.5 | 0.00 | 0.00 | 0.00 | 55 | 1018.1 |
| 20260902192907 | 16 | 238 | 9.7 | 24.1 | 0.00 | 0.00 | 0.00 | 58 | 1018.2 |
| 20260902191907 | 17 | 258 | 9.7 | 22.5 | 0.00 | 0.00 | 0.00 | 57 | 1018.2 |
| 20260902190907 | 16 | 260 | 9.7 | 17.7 | 0.00 | 0.00 | 0.00 | 61 | 1018.3 |
| 20260902185907 | 16 | 294 | 4.8 | 17.7 | 0.00 | 0.00 | 0.00 | 57 | 1018.4 |
| 20260902184907 | 16 | 245 | 8.0 | 17.7 | 0.00 | 0.00 | 0.00 | 58 | 1018.4 |
| 20260902183907 | 15 | 258 | 9.7 | 22.5 | 0.00 | 0.00 | 0.00 | 61 | 1018.4 |
| 20260902182907 | 15 | 261 | 12.9 | 22.5 | 0.00 | 0.00 | 0.00 | 60 | 1018.5 |
| 20260902181907 | 16 | 259 | 12.9 | 24.1 | 0.00 | 0.00 | 0.00 | 62 | 1018.6 |
| 20260902180907 | 16 | 247 | 11.3 | 20.9 | 0.00 | 0.00 | 0.00 | 60 | 1018.7 |
| 20260902175907 | 15 | 250 | 8.0 | 20.9 | 0.00 | 0.00 | 0.00 | 59 | 1018.7 |
| 20260902174907 | 15 | 209 | 4.8 | 22.5 | 0.00 | 0.00 | 0.00 | 60 | 1018.7 |
| 20260902173907 | 15 | 256 | 6.4 | 16.1 | 0.00 | 0.00 | 0.00 | 61 | 1018.7 |
| 20260902172907 | 15 | 262 | 4.8 | 19.3 | 0.00 | 0.00 | 0.00 | 64 | 1018.7 |
| 20260902171907 | 15 | 260 | 9.7 | 22.5 | 0.00 | 0.00 | 0.00 | 66 | 1018.6 |
| 20260902170907 | 15 | 263 | 9.7 | 19.3 | 0.00 | 0.00 | 0.00 | 63 | 1018.6 |
| 20260902165907 | 14 | 265 | 12.9 | 20.9 | 0.00 | 0.00 | 0.00 | 66 | 1018.6 |
| 20260902164907 | 14 | 266 | 8.0 | 24.1 | 0.00 | 0.00 | 0.00 | 66 | 1018.5 |
| 20260902163907 | 15 | 266 | 9.7 | 20.9 | 0.00 | 0.00 | 0.00 | 66 | 1018.4 |
| 20260902162909 | 14 | 268 | 9.7 | 19.3 | 0.00 | 0.00 | 0.00 | 64 | 1018.4 |
| 20260902161907 | 14 | 241 | 4.8 | 14.5 | 0.00 | 0.00 | 0.00 | 62 | 1018.4 |
| 20260902160907 | 14 | 287 | 6.4 | 19.3 | 0.00 | 0.00 | 0.00 | 62 | 1018.4 |
| 20260902155907 | 14 | 273 | 11.3 | 20.9 | 0.00 | 0.00 | 0.00 | 61 | 1018.3 |
| 20260902154907 | 14 | 272 | 9.7 | 22.5 | 0.00 | 0.00 | 0.00 | 60 | 1018.3 |
| 20260902153907 | 13 | 269 | 12.9 | 20.9 | 0.00 | 0.00 | 0.00 | 61 | 1018.1 |
| 20260902152907 | 13 | 259 | 11.3 | 20.9 | 0.00 | 0.00 | 0.00 | 63 | 1018.1 |
| 20260902151907 | 13 | 251 | 8.0 | 19.3 | 0.00 | 0.00 | 0.00 | 60 | 1018.0 |
| 20260902150907 | 13 | 255 | 9.7 | 14.5 | 0.00 | 0.00 | 0.00 | 61 | 1018.1 |
| 20260902145907 | 13 | 240 | 4.8 | 16.1 | 0.00 | 0.00 | 0.00 | 61 | 1018.1 |
| 20260902144907 | 13 | 262 | 4.8 | 16.1 | 0.00 | 0.00 | 0.00 | 63 | 1018.0 |
| 20260902143907 | 13 | 264 | 6.4 | 16.1 | 0.00 | 0.00 | 0.00 | 63 | 1018.0 |
| 20260902142908 | 13 | 267 | 8.0 | 14.5 | 0.00 | 0.00 | 0.00 | 62 | 1018.0 |
| 20260902141907 | 13 | 273 | 6.4 | 14.5 | 0.00 | 0.00 | 0.00 | 64 | 1017.9 |
| 20260902140907 | 13 | 280 | 8.0 | 16.1 | 0.00 | 0.00 | 0.00 | 65 | 1017.9 |
| 20260902135907 | 13 | 273 | 11.3 | 16.1 | 0.00 | 0.00 | 0.00 | 64 | 1017.8 |
| 20260902134908 | 13 | 275 | 9.7 | 17.7 | 0.00 | 0.00 | 0.00 | 65 | 1017.7 |
| 20260902133907 | 13 | 278 | 11.3 | 17.7 | 0.00 | 0.00 | 0.00 | 65 | 1017.7 |
| 20260902132907 | 13 | 281 | 14.5 | 20.9 | 0.00 | 0.00 | 0.00 | 64 | 1017.6 |
| 20260902131907 | 12 | 284 | 14.5 | 19.3 | 0.00 | 0.00 | 0.00 | 68 | 1017.6 |
| 20260902130907 | 12 | 289 | 12.9 | 19.3 | 0.00 | 0.00 | 0.00 | 71 | 1017.5 |
| 20260902125907 | 12 | 289 | 14.5 | 19.3 | 0.00 | 0.00 | 0.00 | 70 | 1017.5 |
| 20260902124907 | 12 | 294 | 14.5 | 19.3 | 0.00 | 0.00 | 0.00 | 70 | 1017.3 |
| 20260902123907 | 12 | 296 | 14.5 | 19.3 | 0.00 | 0.00 | 0.00 | 70 | 1017.3 |
| 20260902122908 | 12 | 297 | 12.9 | 17.7 | 0.00 | 0.00 | 0.00 | 69 | 1017.2 |
| 20260902121907 | 12 | 299 | 11.3 | 17.7 | 0.00 | 0.00 | 0.00 | 69 | 1017.2 |
| 20260902120908 | 12 | 300 | 12.9 | 19.3 | 0.00 | 0.00 | 0.00 | 68 | 1017.2 |
| 20260902115907 | 12 | 301 | 12.9 | 19.3 | 0.00 | 0.00 | 0.00 | 68 | 1017.1 |
| 20260902114907 | 12 | 304 | 12.9 | 17.7 | 0.00 | 0.00 | 0.00 | 67 | 1017.1 |
| 20260902113907 | 12 | 303 | 12.9 | 17.7 | 0.00 | 0.00 | 0.00 | 67 | 1017.1 |
| 20260902112908 | 12 | 299 | 12.9 | 19.3 | 0.00 | 0.00 | 0.00 | 66 | 1017.1 |
| 20260902111907 | 12 | 297 | 12.9 | 22.5 | 0.00 | 0.00 | 0.00 | 61 | 1017.1 |
| 20260902110907 | 12 | 293 | 14.5 | 19.3 | 0.00 | 0.00 | 0.00 | 62 | 1017.1 |
| 20260902105907 | 13 | 300 | 12.9 | 22.5 | 0.00 | 0.00 | 0.00 | 60 | 1017.1 |
| 20260902104406 | 13 | 292 | 16.1 | 22.5 | 0.00 | 0.00 | 0.00 | 58 | 1017.2 |
| 20260902103406 | 13 | 282 | 16.1 | 25.7 | 0.00 | 0.00 | 0.00 | 57 | 1017.2 |
| 20260902102406 | 13 | 287 | 14.5 | 25.7 | 0.00 | 0.00 | 0.00 | 58 | 1017.3 |
| 20260902101406 | 13 | 291 | 14.5 | 30.6 | 0.00 | 0.00 | 0.00 | 58 | 1017.3 |
| 20260902100406 | 13 | 302 | 14.5 | 25.7 | 0.00 | 0.00 | 0.00 | 58 | 1017.3 |
| 20260902095406 | 13 | 301 | 16.1 | 24.1 | 0.00 | 0.00 | 0.00 | 59 | 1017.3 |
| 20260902094406 | 13 | 295 | 14.5 | 22.5 | 0.00 | 0.00 | 0.00 | 58 | 1017.3 |
| 20260902093406 | 13 | 299 | 16.1 | 25.7 | 0.00 | 0.00 | 0.00 | 58 | 1017.3 |
| 20260902092406 | 13 | 295 | 16.1 | 20.9 | 0.00 | 0.00 | 0.00 | 57 | 1017.3 |
| 20260902091407 | 13 | 292 | 14.5 | 27.4 | 0.00 | 0.00 | 0.00 | 58 | 1017.4 |
| 20260902090406 | 13 | 283 | 14.5 | 27.4 | 0.00 | 0.00 | 0.00 | 58 | 1017.4 |
| 20260902085406 | 13 | 299 | 14.5 | 24.1 | 0.00 | 0.00 | 0.00 | 57 | 1017.5 |
| 20260902084406 | 13 | 295 | 12.9 | 20.9 | 0.00 | 0.00 | 0.00 | 58 | 1017.6 |
| 20260902083406 | 13 | 296 | 14.5 | 25.7 | 0.00 | 0.00 | 0.00 | 57 | 1017.6 |
| 20260902082406 | 13 | 299 | 16.1 | 27.4 | 0.00 | 0.00 | 0.00 | 57 | 1017.6 |
| 20260902081407 | 13 | 301 | 16.1 | 22.5 | 0.00 | 0.00 | 0.00 | 58 | 1017.6 |
| 20260902080406 | 13 | 304 | 16.1 | 22.5 | 0.00 | 0.00 | 0.00 | 58 | 1017.7 |
| 20260902075406 | 13 | 303 | 16.1 | 22.5 | 0.00 | 0.00 | 0.00 | 58 | 1017.7 |
| 20260902074406 | 13 | 300 | 16.1 | 22.5 | 0.00 | 0.00 | 0.00 | 55 | 1017.7 |
| 20260902073406 | 14 | 300 | 16.1 | 20.9 | 0.00 | 0.00 | 0.00 | 53 | 1017.7 |
| 20260902072406 | 14 | 299 | 16.1 | 22.5 | 0.00 | 0.00 | 0.00 | 52 | 1017.7 |
| 20260902071406 | 14 | 299 | 12.9 | 19.3 | 0.00 | 0.00 | 0.00 | 49 | 1017.7 |
| 20260902070406 | 15 | 302 | 16.1 | 20.9 | 0.00 | 0.00 | 0.00 | 39 | 1017.7 |
| 20260902065406 | 15 | 298 | 12.9 | 20.9 | 0.00 | 0.00 | 0.00 | 27 | 1017.7 |
| 20260902064406 | 15 | 302 | 12.9 | 19.3 | 0.00 | 0.00 | 0.00 | 27 | 1017.7 |
| 20260902063406 | 15 | 299 | 11.3 | 17.7 | 0.00 | 0.00 | 0.00 | 27 | 1017.7 |
| 20260902062406 | 15 | 297 | 9.7 | 16.1 | 0.00 | 0.00 | 0.00 | 23 | 1017.7 |
| 20260902061406 | 15 | 289 | 11.3 | 17.7 | 0.00 | 0.00 | 0.00 | 24 | 1017.7 |
| 20260902060406 | 15 | 296 | 11.3 | 16.1 | 0.00 | 0.00 | 0.00 | 23 | 1017.7 |
| 20260902055406 | 15 | 297 | 8.0 | 14.5 | 0.00 | 0.00 | 0.00 | 23 | 1017.8 |
| 20260902054406 | 16 | 292 | 9.7 | 14.5 | 0.00 | 0.00 | 0.00 | 21 | 1017.9 |
| 20260902053406 | 15 | 287 | 9.7 | 12.9 | 0.00 | 0.00 | 0.00 | 21 | 1017.9 |
| 20260902052406 | 15 | 307 | 6.4 | 11.3 | 0.00 | 0.00 | 0.00 | 23 | 1017.9 |
| 20260902051406 | 15 | 299 | 6.4 | 12.9 | 0.00 | 0.00 | 0.00 | 21 | 1018.0 |
| 20260902050406 | 15 | 302 | 6.4 | 14.5 | 0.00 | 0.00 | 0.00 | 24 | 1018.0 |
| 20260902045406 | 16 | 296 | 8.0 | 14.5 | 0.00 | 0.00 | 0.00 | 22 | 1018.0 |
| 20260902044405 | 16 | 262 | 1.6 | 4.8 | 0.00 | 0.00 | 0.00 | 21 | 1017.7 |
| 20260902043406 | 16 | 0 | 0.0 | 4.8 | 0.00 | 0.00 | 0.00 | 21 | 1017.7 |
| 20260902042406 | 16 | 262 | 3.2 | 6.4 | 0.00 | 0.00 | 0.00 | 21 | 1017.6 |
| 20260902041406 | 16 | 287 | 1.6 | 8.0 | 0.00 | 0.00 | 0.00 | 20 | 1017.6 |
| 20260902040406 | 16 | 287 | 6.4 | 11.3 | 0.00 | 0.00 | 0.00 | 19 | 1017.6 |
| 20260902035406 | 16 | 283 | 6.4 | 12.9 | 0.00 | 0.00 | 0.00 | 20 | 1017.4 |
| 20260902034407 | 16 | 303 | 6.4 | 8.0 | 0.00 | 0.00 | 0.00 | 19 | 1017.2 |
| 20260902033406 | 16 | 301 | 6.4 | 11.3 | 0.00 | 0.00 | 0.00 | 21 | 1017.1 |
| 20260902032406 | 16 | 305 | 8.0 | 11.3 | 0.00 | 0.00 | 0.00 | 20 | 1017.0 |
| 20260902031406 | 16 | 319 | 4.8 | 8.0 | 0.00 | 0.00 | 0.00 | 20 | 1016.8 |
| 20260902030407 | 16 | 314 | 6.4 | 11.3 | 0.00 | 0.00 | 0.00 | 21 | 1016.6 |
| 20260902025406 | 16 | 305 | 6.4 | 11.3 | 0.00 | 0.00 | 0.00 | 22 | 1016.5 |
| 20260902024406 | 16 | 318 | 6.4 | 9.7 | 0.00 | 0.00 | 0.00 | 22 | 1016.5 |
| 20260902023406 | 16 | 318 | 6.4 | 11.3 | 0.00 | 0.00 | 0.00 | 23 | 1016.4 |
| 20260902022406 | 15 | 312 | 8.0 | 11.3 | 0.00 | 0.00 | 0.00 | 26 | 1016.3 |
| 20260902021406 | 15 | 316 | 6.4 | 11.3 | 0.00 | 0.00 | 0.00 | 34 | 1016.2 |
| 20260902020406 | 14 | 323 | 4.8 | 9.7 | 0.00 | 0.00 | 0.00 | 47 | 1016.1 |
| 20260902015406 | 14 | 320 | 4.8 | 11.3 | 0.00 | 0.00 | 0.00 | 59 | 1016.0 |
| 20260902014406 | 15 | 311 | 8.0 | 14.5 | 0.00 | 0.00 | 0.00 | 57 | 1016.0 |
| 20260902013406 | 15 | 318 | 6.4 | 14.5 | 0.00 | 0.00 | 0.00 | 55 | 1016.1 |
| 20260902012409 | 15 | 308 | 9.7 | 20.9 | 0.00 | 0.00 | 0.00 | 55 | 1016.2 |
| 20260902011406 | 16 | 307 | 9.7 | 20.9 | 0.00 | 0.00 | 0.00 | 56 | 1016.2 |
| 20260902010406 | 16 | 311 | 11.3 | 20.9 | 0.00 | 0.00 | 0.00 | 55 | 1016.1 |
| 20260902005407 | 16 | 310 | 14.5 | 20.9 | 0.00 | 0.00 | 0.00 | 54 | 1016.2 |
| 20260902004406 | 16 | 304 | 12.9 | 19.3 | 0.00 | 0.00 | 0.00 | 56 | 1016.2 |
| 20260902003406 | 16 | 300 | 12.9 | 20.9 | 0.00 | 0.00 | 0.00 | 53 | 1016.3 |
| 20260902002406 | 16 | 309 | 12.9 | 20.9 | 0.00 | 0.00 | 0.00 | 52 | 1016.4 |
| 20260902001406 | 17 | 306 | 12.9 | 22.5 | 0.00 | 0.00 | 0.00 | 55 | 1016.4 |
| 20260902000407 | 17 | 299 | 12.9 | 27.4 | 0.00 | 0.00 | 0.00 | 55 | 1016.4 |
| 20260901235406 | 17 | 302 | 8.0 | 20.9 | 0.00 | 0.00 | 0.00 | 53 | 1016.3 |
| 20260901234406 | 17 | 277 | 14.5 | 27.4 | 0.00 | 0.00 | 0.00 | 53 | 1016.3 |
| 20260901233406 | 17 | 289 | 12.9 | 22.5 | 0.00 | 0.00 | 0.00 | 48 | 1016.6 |
| 20260901231909 | 18 | 301 | 6.4 | 16.1 | 0.00 | 0.00 | 0.00 | 54 | 1016.7 |
| 20260901230909 | 17 | 295 | 4.8 | 17.7 | 0.00 | 0.00 | 0.00 | 51 | 1016.7 |
| 20260901225908 | 17 | 270 | 8.0 | 19.3 | 0.00 | 0.00 | 0.00 | 47 | 1016.8 |
| 20260901224408 | 17 | 302 | 8.0 | 16.1 | 0.00 | 0.00 | 0.00 | 52 | 1016.8 |
| 20260901223407 | 17 | 325 | 3.2 | 19.3 | 0.00 | 0.00 | 0.00 | 55 | 1016.9 |
| 20260901222407 | 17 | 326 | 8.0 | 14.5 | 0.00 | 0.00 | 0.00 | 49 | 1016.9 |
| 20260901221407 | 17 | 289 | 9.7 | 19.3 | 0.00 | 0.00 | 0.00 | 53 | 1017.0 |
| 20260901220407 | 18 | 325 | 6.4 | 16.1 | 0.00 | 0.00 | 0.00 | 51 | 1017.0 |
| 20260901215407 | 17 | 316 | 6.4 | 17.7 | 0.00 | 0.00 | 0.00 | 53 | 1017.1 |
| 20260901214407 | 18 | 279 | 6.4 | 20.9 | 0.00 | 0.00 | 0.00 | 55 | 1017.1 |
| 20260901213411 | 17 | 298 | 6.4 | 19.3 | 0.00 | 0.00 | 0.00 | 57 | 1017.2 |
| 20260901212407 | 17 | 296 | 3.2 | 17.7 | 0.00 | 0.00 | 0.00 | 59 | 1017.3 |
| 20260901211407 | 16 | 263 | 6.4 | 17.7 | 0.00 | 0.00 | 0.00 | 60 | 1017.4 |
| 20260901210407 | 16 | 273 | 6.4 | 17.7 | 0.00 | 0.00 | 0.00 | 60 | 1017.5 |
| 20260901205407 | 15 | 262 | 1.6 | 11.3 | 0.00 | 0.00 | 0.00 | 62 | 1017.6 |
| 20260901204407 | 15 | 0 | 0.0 | 12.9 | 0.00 | 0.00 | 0.00 | 63 | 1017.7 |
| 20260901203407 | 15 | 265 | 3.2 | 12.9 | 0.00 | 0.05 | 0.00 | 62 | 1017.7 |
| 20260901202407 | 15 | 280 | 4.8 | 11.3 | 0.00 | 0.05 | 0.00 | 62 | 1017.7 |
| 20260901201410 | 16 | 298 | 3.2 | 9.7 | 0.00 | 0.08 | 0.00 | 62 | 1017.7 |
| 20260901200408 | 15 | 0 | 0.0 | 11.3 | 0.00 | 0.10 | 0.00 | 63 | 1017.8 |